Home   Weather   Milwaukee   Past weeks

Flag for USA Past Weather in Milwaukee, Wisconsin, USA — Yesterday and Last 2 Weeks

50 °F


Feels Like: 50 °F
Forecast: 46 / 49 °F
Wind: No wind

Location: Milwaukee / Timmerman

Current Time: Oct 25, 2016 at 9:17:06 PM

Latest Report: Oct 25, 2016 at 8:45 PM

Visibility: 10 mi

Pressure: 30.39 "Hg

Humidity: 67%

Dew Point: 39 °F

Location of MilwaukeeLocation

Past Weather in Milwaukee — Graph


Milwaukee Temperature Yesterday

Maximum temperature yesterday: 55 °F (at 3:45 PM)
Minimum temperature yesterday: 36 °F (at 11:15 PM)
Average temperature yesterday: 44 °F

High & Low Weather Summary for the Past Weeks

High77 °F (Oct 17, 5:45 PM)94% (Oct 16, 2:15 AM)30.46 "Hg (Oct 16, 2:15 AM)
Low32 °F (Oct 14, 5:15 AM)24% (Oct 23, 4:45 PM)29.39 "Hg (Oct 17, 8:45 PM)
Average52 °F73%30.05 "Hg
* Reported Oct 10 7:45 PM — Oct 25 7:45 PM, Milwaukee, Weather by CustomWeather, © 2016

Note: Actual official high and low records may vary slightly from our data, if they occured in-between our weather recording intervals... More about our weather records


Milwaukee Weather History for the Previous 24 Hours

Scroll right to see more
Time TempWeatherWind HumidityBarometerVisibility
7:45 PM
Tue, Oct 25
50 °FMostly cloudy.No wind67%30.40 "Hg10 mi
6:45 PM50 °FOvercast.No wind67%30.40 "Hg10 mi
5:45 PM52 °FMore clouds than sun.6 mph62%30.38 "Hg10 mi
4:45 PM52 °FScattered clouds.7 mph67%30.38 "Hg10 mi
3:45 PM52 °FBroken clouds.7 mph62%30.40 "Hg10 mi
2:45 PM52 °FPartly sunny.8 mph58%30.41 "Hg10 mi
1:45 PM54 °FSunny.5 mph51%30.42 "Hg10 mi
12:45 PM54 °FSunny.3 mph47%30.43 "Hg10 mi
11:45 AM52 °FSunny.No wind50%30.46 "Hg10 mi
10:45 AM48 °FSunny.No wind66%30.46 "Hg10 mi
9:45 AM45 °FSunny.No wind76%30.46 "Hg10 mi
8:45 AM39 °FSunny.No wind87%30.46 "Hg10 mi
7:45 AM34 °FSunny.No wind87%30.44 "Hg10 mi
6:35 AM34 °FClear.No wind93%30.44 "Hg10 mi
6:15 AM32 °FClear.No wind93%30.44 "Hg10 mi
5:55 AM32 °FClear.No wind93%30.44 "Hg10 mi
5:35 AM32 °FClear.No wind93%30.43 "Hg10 mi
5:15 AM32 °FClear.No wind93%30.43 "Hg10 mi
4:55 AM34 °FClear.No wind87%30.43 "Hg10 mi
4:15 AM34 °FClear.No wind93%30.42 "Hg10 mi
3:55 AM34 °FClear.No wind93%30.42 "Hg10 mi
3:35 AM34 °FClear.No wind93%30.42 "Hg10 mi
3:15 AM32 °FClear.No wind93%30.42 "Hg10 mi
2:55 AM34 °FClear.No wind93%30.42 "Hg10 mi
2:35 AM36 °FClear.No wind87%30.42 "Hg10 mi
2:15 AM34 °FClear.No wind93%30.41 "Hg10 mi
1:55 AM34 °FClear.No wind93%30.41 "Hg10 mi
1:35 AM34 °FClear.No wind93%30.42 "Hg10 mi
1:15 AM36 °FClear.No wind87%30.42 "Hg10 mi
12:55 AM34 °FClear.No wind93%30.41 "Hg10 mi
12:35 AM36 °FClear.No wind87%30.42 "Hg10 mi
12:15 AM36 °FClear.No wind87%30.42 "Hg10 mi
11:50 PM
Mon, Oct 24
36 °FClear.No wind87%30.42 "Hg10 mi
11:15 PM36 °FClear.No wind87%30.43 "Hg10 mi
10:55 PM37 °FClear.No wind81%30.43 "Hg10 mi
10:35 PM37 °FClear.No wind81%30.43 "Hg10 mi
10:15 PM37 °FClear.No wind81%30.42 "Hg10 mi
9:55 PM37 °FClear.No wind81%30.42 "Hg10 mi
9:35 PM37 °FClear.No wind81%30.42 "Hg10 mi
9:15 PM39 °FClear.No wind75%30.41 "Hg10 mi
Weather by CustomWeather, © 2016

See weather overviewHow to use our weather pages